Regional Weather Roundup
Issued by NWS Cleveland, OH

Home | Current Version | Previous Version | Text Only | Print | Product List | Glossary Off
Versions: 1 2 3 4 5 6 7 8 9 10 11 12 13 14 15 16 17 18 19 20 21 22 23 24 25 26 27 28 29 30 31 32 33 34 35 36 37 38 39 40 41 42 43 44 45 46 47 48 49 50

000
ASUS41 KCLE 250210
RWRCLE
OHIO REGIONAL WEATHER ROUNDUP
NATIONAL WEATHER SERVICE WILMINGTON, OH
900 PM EST SAT JAN 24 2015

NOTE: "FAIR" INDICATES FEW OR NO CLOUDS BELOW 12,000 FEET WITH NO
SIGNIFICANT WEATHER AND/OR OBSTRUCTIONS TO VISIBILITY.

OHZ001>008-015>018-024>027-034-035-043-044-250300-
   NORTHWEST OHIO

CITY           SKY/WX    TMP DP  RH WIND       PRES   REMARKS
DEFIANCE       CLOUDY    36  31  82 SW6       29.71R
FINDLAY        CLOUDY    36  30  79 SW8       29.70R
TOLEDO EXPRESS CLOUDY    35  29  78 SW10      29.69R WCI  27
TOLEDO EXEC    CLOUDY    35  29  78 SW9       29.70R WCI  28
LIMA           CLOUDY    36  30  79 SW9       29.71S
$$

OHZ009>014-019>023-028>033-038-089-250300-
   NORTHEAST OHIO

CITY           SKY/WX    TMP DP  RH WIND       PRES   REMARKS
CLE-HOPKINS    CLOUDY    32  29  88 SW10      29.69R FOG     WCI  24
CLE-LAKEFRONT  FLURRIES  34  29  82 SW14      29.66R WCI  25
CUY CO. ARPT   CLOUDY    36  32  87 W15       29.66R
LORAIN-ELYRIA  CLOUDY    32  29  88 W13       29.68R WCI  22
ASHTABULA      CLOUDY    32  28  85 W13       29.62R WCI  22
AKRON-CANTON   CLOUDY    32  28  85 W13       29.67R FOG     WCI  22
WOOSTER        CLOUDY    32  28  85 W10       29.68R WCI  24
MANSFIELD      CLOUDY    32  30  92 SW12      29.68R WCI  23
YOUNGSTOWN     FRZ DRZL  31  28  89 W14       29.62S FOG     WCI  21
$$

OHZ042-051>053-060>062-070>072-077>081-250300-
  SOUTHWEST OHIO

CITY           SKY/WX    TMP DP  RH WIND       PRES   REMARKS
CINC-COVINGTON MOCLDY    33  27  78 SW6       29.80R WCI  28
CINC-LUNKEN    PTCLDY    31  26  82 S3        29.83R
HAMILTON       MOCLDY    30  26  85 CALM      29.81R
DAYTON         CLOUDY    34  29  82 SW9       29.77R WCI  27
WRIGHT-PAT AFB CLOUDY    33  29  85 SW6       29.78R WCI  27
DAYTON GENERAL CLOUDY    35  28  75 SW9       29.77R WCI  28
WILMINGTON     MOCLDY    29  25  85 SW7       29.78R WCI  22
$$

OHZ036-037-039>041-045>050-054>059-063>069-073>076-082>088-250300-
  CENTRAL AND SOUTHEAST OHIO

CITY           SKY/WX    TMP DP  RH WIND       PRES   REMARKS
COLUMBUS       CLOUDY    35  28  75 W9        29.76R WCI  28
OSU AIRPORT    CLOUDY    35  29  78 W9        29.75R WCI  28
BOLTON FIELD   CLOUDY    34  30  85 MISG      29.77R
RICKENBACK AFB CLOUDY    34  29  82 W8        29.77R WCI  27
NEWARK         CLOUDY    35  29  78 W9        29.74R WCI  28
MARION         MOCLDY    34  29  82 W9        29.72R WCI  27
LANCASTER      CLOUDY    35  29  78 W8        29.76R WCI  29
ZANESVILLE     CLOUDY    33  29  85 W10       29.73S FOG     WCI  25
NEW PHILLY     CLOUDY    34  29  82 W7        29.71R WCI  28
$$



USA.gov is the U.S. government's official web portal to all federal, state and local government web resources and services.